ARIANE 3 DEB, 33536

Orbit data source: Space-Track

ARIANE 3 DEB, 33536 is space debris in HEO originally from a launch on Thu, 08 Sep 1988 UTC launched from the French Guiana (FRGUI). Debris objects in space refer to the collection of defunct objects orbiting the Earth. Examples of debris include non-operational satellites, rocket bodies, and fragments generated from explosions, collisions, or faulty payload assembly.

Loading next visibility...
Identifier
33536, 1988-081L
Orbit
HEO
Country
Flag of FRFR
Related business
Manufacturer
Unknown
Mission
Spacecraft
Bus & Motor
Unknown
Mass
Unknown
Launch date (UTC)
1988-09-08 (37 years ago)
Launch vehicle
Unknown
Launch site
French Guiana (FRGUI)
Object type
Payload
Rocket body
Debris
Shape & HBR
Unknown
Radar Cross Section
Small (<0.1 m²)

Expand to show TLE details & history
Last TLE update: 5 days ago

TLE from 5 days ago
0 ARIANE 3 DEB
1 33536U 88081L   25255.14399836 -.00000143  00000-0  00000-0 0  9996
2 33536   6.9189   2.1594 6924737 341.9884 128.0877  2.15532767167556
Epoch: 2025-09-12T03:27Z
TLE epoch observation values (Epoch: 2025-09-12T03:27:21.458Z)
Latitude
3.61339°
Longitude
107.52792°
Altitude
33,932.091 km
Speed
2.008 km/s
True Right ascension
10h 03m 03s
True Declination
3° 36' 34"
Sunlit
Object was in daylight at epoch
Visualization orbit readout
Latitude
Unknown
Longitude
Unknown
Altitude
Unknown
Speed
Unknown
Apparent Right ascension
Unknown
Apparent Declination
Unknown
Sunlit
N/A
Visualization observer readout
Local Sidereal Time
10:27:00
Azimuth
Unknown
Elevation
Unknown
Doppler factor
Unknown
Orbital elements
Apogee altitude
36,476.016 km
Perigee altitude
1,408.56 km
Semi-major axis
25,320.425 km
Eccentricity
0.69247
Inclination
6.9189°
RAAN
2.1594°
Arg. of periapsis
341.9884°
True anomaly
166.38038°
Mean anomaly
128.0877°
Eccentric anomaly
148.70003°
Mean motion
0.53869 °/min
Orbital period
668.29 mins
BSTAR
0
Loading maneuver chart data...
Computing Atmospheric mass density...
Loading historical data...
Loading historical data...
Loading historical data...
Loading historical data...
Loading historical data...
Loading historical data...
Loading historical data...

Documentation

Showing up to 5 results
|